| time (UTC) | temp F | wind direction | speed knots | gust knots | rain 1hr in | rain 24hr in | rain mn in | humidity % | barometer mb |
| 20260502163907 | 67 | 142 | 0.0 | 0.0 | 0.00 | 0.00 | 0.00 | 39 | 1021.7 |
| 20260502163403 | 67 | 142 | 0.0 | 0.0 | 0.00 | 0.00 | 0.00 | 39 | 1021.7 |
| 20260502162901 | 67 | 137 | 0.0 | 0.9 | 0.00 | 0.00 | 0.00 | 41 | 1021.7 |
| 20260502162357 | 67 | 137 | 0.0 | 0.9 | 0.00 | 0.00 | 0.00 | 41 | 1021.7 |
| 20260502161855 | 67 | 134 | 0.0 | 0.0 | 0.00 | 0.00 | 0.00 | 39 | 1021.7 |
| 20260502161350 | 67 | 139 | 0.0 | 0.0 | 0.00 | 0.00 | 0.00 | 40 | 1021.9 |
| 20260502160849 | 67 | 148 | 0.0 | 0.0 | 0.00 | 0.00 | 0.00 | 39 | 1021.8 |
| 20260502160347 | 68 | 149 | 0.9 | 0.9 | 0.00 | 0.00 | 0.00 | 37 | 1021.8 |
| 20260502152322 | 61 | 136 | 0.0 | 0.0 | 0.00 | 0.00 | 0.00 | 46 | 1021.8 |
| 20260502151820 | 60 | 133 | 0.0 | 0.0 | 0.00 | 0.00 | 0.00 | 45 | 1021.8 |
| 20260502151316 | 57 | 124 | 0.9 | 0.9 | 0.00 | 0.00 | 0.00 | 50 | 1022.0 |
| 20260502150814 | 57 | 124 | 0.9 | 0.9 | 0.00 | 0.00 | 0.00 | 50 | 1022.0 |
| 20260502150310 | 57 | 124 | 0.9 | 0.9 | 0.00 | 0.00 | 0.00 | 50 | 1022.0 |
| 20260502130439 | 40 | 132 | 0.0 | 0.0 | 0.00 | 0.00 | 0.00 | 66 | 1021.4 |
| 20260502123422 | 37 | 130 | 0.0 | 0.9 | 0.00 | 0.00 | 0.00 | 74 | 1021.3 |
| 20260502122919 | 37 | 128 | 0.0 | 0.0 | 0.00 | 0.00 | 0.00 | 73 | 1021.2 |
| 20260502122415 | 37 | 128 | 0.0 | 0.0 | 0.00 | 0.00 | 0.00 | 73 | 1021.2 |
| 20260502121914 | 38 | 129 | 0.0 | 0.0 | 0.00 | 0.00 | 0.00 | 74 | 1021.1 |
| 20260502121410 | 38 | 129 | 0.0 | 0.0 | 0.00 | 0.00 | 0.00 | 74 | 1021.1 |
| 20260502120908 | 38 | 137 | 0.0 | 0.0 | 0.00 | 0.00 | 0.00 | 73 | 1021.0 |
| 20260502120404 | 38 | 137 | 0.0 | 0.0 | 0.00 | 0.00 | 0.00 | 73 | 1021.0 |
| 20260502115901 | 39 | 137 | 0.0 | 0.0 | 0.00 | 0.00 | 0.00 | 72 | 1021.1 |
| 20260502115358 | 39 | 135 | 0.0 | 0.0 | 0.00 | 0.00 | 0.00 | 71 | 1021.0 |
| 20260502114854 | 38 | 139 | 0.0 | 0.0 | 0.00 | 0.00 | 0.00 | 71 | 1021.1 |
| 20260502114352 | 38 | 139 | 0.0 | 0.0 | 0.00 | 0.00 | 0.00 | 71 | 1021.1 |
| 20260502113848 | 38 | 133 | 0.0 | 0.0 | 0.00 | 0.00 | 0.00 | 71 | 1020.9 |
| 20260502112335 | 40 | 134 | 0.0 | 0.0 | 0.00 | 0.00 | 0.00 | 68 | 1021.2 |
| 20260502111833 | 40 | 134 | 0.0 | 0.0 | 0.00 | 0.00 | 0.00 | 68 | 1021.2 |
| 20260502111331 | 41 | 130 | 0.0 | 0.0 | 0.00 | 0.00 | 0.00 | 67 | 1021.3 |
| 20260502110828 | 41 | 130 | 0.0 | 0.0 | 0.00 | 0.00 | 0.00 | 67 | 1021.1 |
| 20260502110326 | 41 | 131 | 0.0 | 0.0 | 0.00 | 0.00 | 0.00 | 66 | 1021.4 |
| 20260502105823 | 41 | 130 | 0.0 | 0.0 | 0.00 | 0.00 | 0.00 | 67 | 1021.0 |
| 20260502105320 | 41 | 130 | 0.0 | 0.0 | 0.00 | 0.00 | 0.00 | 67 | 1021.0 |
| 20260502104817 | 41 | 128 | 0.0 | 0.0 | 0.00 | 0.00 | 0.00 | 69 | 1021.3 |
| 20260502104314 | 41 | 133 | 0.0 | 0.0 | 0.00 | 0.00 | 0.00 | 66 | 1021.2 |
| 20260502103812 | 41 | 133 | 0.0 | 0.0 | 0.00 | 0.00 | 0.00 | 66 | 1021.0 |
| 20260502103309 | 41 | 128 | 0.0 | 0.0 | 0.00 | 0.00 | 0.00 | 67 | 1021.3 |
| 20260502102807 | 41 | 129 | 0.0 | 0.0 | 0.00 | 0.00 | 0.00 | 66 | 1021.2 |
| 20260502102305 | 41 | 129 | 0.0 | 0.0 | 0.00 | 0.00 | 0.00 | 66 | 1021.1 |
| 20260502101800 | 41 | 133 | 0.0 | 0.0 | 0.00 | 0.00 | 0.00 | 66 | 1021.2 |
| 20260502101258 | 41 | 133 | 0.0 | 0.0 | 0.00 | 0.00 | 0.00 | 66 | 1021.2 |
| 20260502100756 | 41 | 138 | 0.0 | 0.0 | 0.00 | 0.00 | 0.00 | 65 | 1021.1 |
| 20260502100255 | 41 | 140 | 0.0 | 0.0 | 0.00 | 0.00 | 0.00 | 66 | 1021.0 |
| 20260502091229 | 46 | 140 | 0.0 | 0.0 | 0.00 | 0.00 | 0.00 | 54 | 1021.1 |
| 20260502090726 | 46 | 133 | 0.0 | 0.0 | 0.00 | 0.00 | 0.00 | 54 | 1021.1 |
| 20260502090223 | 46 | 188 | 0.9 | 0.9 | 0.00 | 0.00 | 0.00 | 55 | 1020.8 |
| 20260502071124 | 45 | 137 | 0.0 | 0.0 | 0.00 | 0.00 | 0.00 | 58 | 1020.9 |
| 20260502070622 | 45 | 143 | 0.0 | 0.9 | 0.00 | 0.00 | 0.00 | 59 | 1020.9 |
| 20260502070120 | 45 | 130 | 0.0 | 0.9 | 0.00 | 0.00 | 0.00 | 59 | 1020.9 |
| 20260502065618 | 45 | 131 | 0.0 | 0.0 | 0.00 | 0.00 | 0.00 | 60 | 1020.9 |
| 20260502065115 | 45 | 131 | 0.0 | 0.0 | 0.00 | 0.00 | 0.00 | 59 | 1021.0 |
| 20260502064614 | 46 | 131 | 0.0 | 0.0 | 0.00 | 0.00 | 0.00 | 58 | 1021.0 |
| 20260502064111 | 47 | 131 | 0.0 | 0.0 | 0.00 | 0.00 | 0.00 | 57 | 1021.0 |
| 20260502063608 | 48 | 130 | 0.0 | 0.0 | 0.00 | 0.00 | 0.00 | 56 | 1021.0 |
| 20260502063106 | 47 | 133 | 0.0 | 0.0 | 0.00 | 0.00 | 0.00 | 55 | 1021.0 |
| 20260502062603 | 47 | 128 | 0.0 | 0.9 | 0.00 | 0.00 | 0.00 | 56 | 1021.0 |
| 20260502062101 | 48 | 128 | 0.0 | 0.0 | 0.00 | 0.00 | 0.00 | 54 | 1020.8 |
| 20260502061558 | 48 | 117 | 0.0 | 0.0 | 0.00 | 0.00 | 0.00 | 56 | 1020.8 |
| 20260502061055 | 48 | 128 | 0.0 | 0.0 | 0.00 | 0.00 | 0.00 | 55 | 1020.8 |
| 20260502060550 | 48 | 129 | 0.0 | 0.0 | 0.00 | 0.00 | 0.00 | 54 | 1020.6 |
| 20260502060048 | 48 | 138 | 0.0 | 0.0 | 0.00 | 0.00 | 0.00 | 55 | 1021.0 |
| 20260502055545 | 47 | 128 | 0.0 | 0.0 | 0.00 | 0.00 | 0.00 | 55 | 1020.6 |
| 20260502055044 | 48 | 138 | 0.0 | 0.0 | 0.00 | 0.00 | 0.00 | 56 | 1020.5 |
| 20260502054542 | 48 | 140 | 0.0 | 0.9 | 0.00 | 0.00 | 0.00 | 56 | 1020.8 |
| 20260502054038 | 48 | 136 | 0.0 | 0.0 | 0.00 | 0.00 | 0.00 | 54 | 1020.5 |
| 20260502053536 | 49 | 129 | 0.0 | 0.0 | 0.00 | 0.00 | 0.00 | 54 | 1020.8 |
| 20260502053033 | 48 | 137 | 0.0 | 0.0 | 0.00 | 0.00 | 0.00 | 54 | 1020.6 |
| 20260502052532 | 48 | 122 | 0.9 | 0.9 | 0.00 | 0.00 | 0.00 | 55 | 1020.8 |
| 20260502052029 | 48 | 133 | 0.0 | 0.0 | 0.00 | 0.00 | 0.00 | 55 | 1020.5 |
| 20260502051527 | 49 | 130 | 0.0 | 0.0 | 0.00 | 0.00 | 0.00 | 54 | 1020.5 |
| 20260502051025 | 49 | 127 | 0.0 | 0.0 | 0.00 | 0.00 | 0.00 | 53 | 1020.5 |
| 20260502050520 | 50 | 126 | 0.0 | 0.0 | 0.00 | 0.00 | 0.00 | 53 | 1020.6 |
| 20260502050018 | 50 | 137 | 0.0 | 0.0 | 0.00 | 0.00 | 0.00 | 51 | 1020.5 |
| 20260502045514 | 50 | 130 | 0.0 | 0.0 | 0.00 | 0.00 | 0.00 | 51 | 1020.4 |
| 20260502045012 | 51 | 136 | 0.0 | 0.0 | 0.00 | 0.00 | 0.00 | 50 | 1020.4 |
| 20260502044508 | 51 | 131 | 0.0 | 0.0 | 0.00 | 0.00 | 0.00 | 49 | 1020.5 |
| 20260502044004 | 52 | 130 | 0.0 | 0.0 | 0.00 | 0.00 | 0.00 | 49 | 1020.6 |
| 20260502043502 | 52 | 131 | 0.0 | 0.0 | 0.00 | 0.00 | 0.00 | 48 | 1020.3 |
| 20260502043002 | 52 | 137 | 0.0 | 0.0 | 0.00 | 0.00 | 0.00 | 48 | 1020.5 |
| 20260502042459 | 52 | 138 | 0.0 | 0.9 | 0.00 | 0.00 | 0.00 | 49 | 1020.4 |
| 20260502041956 | 52 | 136 | 0.0 | 0.0 | 0.00 | 0.00 | 0.00 | 49 | 1020.4 |
| 20260502041454 | 53 | 131 | 0.0 | 0.0 | 0.00 | 0.00 | 0.00 | 48 | 1020.4 |
| 20260502040950 | 53 | 132 | 0.0 | 0.0 | 0.00 | 0.00 | 0.00 | 47 | 1020.3 |
| 20260502040447 | 54 | 131 | 0.0 | 0.0 | 0.00 | 0.00 | 0.00 | 47 | 1020.3 |
| 20260502035943 | 54 | 128 | 0.0 | 0.0 | 0.00 | 0.00 | 0.00 | 47 | 1020.3 |
| 20260502035440 | 53 | 146 | 0.9 | 0.9 | 0.00 | 0.00 | 0.00 | 47 | 1020.2 |
| 20260502034938 | 54 | 131 | 0.0 | 0.0 | 0.00 | 0.00 | 0.00 | 47 | 1020.2 |
| 20260502034436 | 54 | 133 | 0.0 | 0.0 | 0.00 | 0.00 | 0.00 | 46 | 1020.1 |
| 20260502033934 | 55 | 137 | 0.0 | 0.0 | 0.00 | 0.00 | 0.00 | 45 | 1019.8 |
| 20260502033431 | 55 | 135 | 0.0 | 0.0 | 0.00 | 0.00 | 0.00 | 44 | 1019.8 |
| 20260502032928 | 55 | 136 | 0.0 | 0.0 | 0.00 | 0.00 | 0.00 | 45 | 1020.1 |
| 20260502032424 | 54 | 139 | 0.0 | 0.9 | 0.00 | 0.00 | 0.00 | 47 | 1019.8 |
| 20260502031922 | 54 | 133 | 0.0 | 0.0 | 0.00 | 0.00 | 0.00 | 46 | 1019.7 |
| 20260502031420 | 53 | 138 | 0.0 | 0.9 | 0.00 | 0.00 | 0.00 | 46 | 1019.7 |
| 20260502030918 | 54 | 134 | 0.0 | 0.0 | 0.00 | 0.00 | 0.00 | 46 | 1019.7 |
| 20260502030416 | 54 | 133 | 0.0 | 0.0 | 0.00 | 0.00 | 0.00 | 46 | 1019.5 |
| 20260502025914 | 55 | 133 | 0.0 | 0.0 | 0.00 | 0.00 | 0.00 | 45 | 1019.4 |
| 20260502025410 | 55 | 132 | 0.0 | 0.0 | 0.00 | 0.00 | 0.00 | 44 | 1019.5 |
| 20260502024908 | 56 | 131 | 0.0 | 0.0 | 0.00 | 0.00 | 0.00 | 43 | 1019.3 |
| 20260502024406 | 57 | 131 | 0.0 | 0.0 | 0.00 | 0.00 | 0.00 | 42 | 1019.4 |
| 20260502023903 | 58 | 130 | 0.0 | 0.0 | 0.00 | 0.00 | 0.00 | 40 | 1019.3 |
| 20260502023401 | 59 | 130 | 0.0 | 0.0 | 0.00 | 0.00 | 0.00 | 39 | 1019.3 |
| 20260502022859 | 60 | 130 | 0.0 | 0.0 | 0.00 | 0.00 | 0.00 | 38 | 1019.2 |
| 20260502022355 | 60 | 131 | 0.0 | 0.0 | 0.00 | 0.00 | 0.00 | 36 | 1019.0 |
| 20260502021851 | 61 | 135 | 0.0 | 0.0 | 0.00 | 0.00 | 0.00 | 36 | 1018.9 |
| 20260502021349 | 62 | 131 | 0.0 | 0.9 | 0.00 | 0.00 | 0.00 | 34 | 1019.2 |
| 20260502020846 | 62 | 287 | 0.9 | 2.6 | 0.00 | 0.00 | 0.00 | 34 | 1018.8 |
| 20260502020344 | 63 | 299 | 1.7 | 2.6 | 0.00 | 0.00 | 0.00 | 32 | 1018.9 |
| 20260502015841 | 63 | 135 | 0.9 | 0.9 | 0.00 | 0.00 | 0.00 | 32 | 1018.9 |
| 20260502015338 | 63 | 129 | 1.7 | 1.7 | 0.00 | 0.00 | 0.00 | 31 | 1018.9 |
| 20260502014835 | 64 | 9 | 4.3 | 6.1 | 0.00 | 0.00 | 0.00 | 31 | 1018.9 |
| 20260502014332 | 64 | 118 | 0.9 | 1.7 | 0.00 | 0.00 | 0.00 | 31 | 1018.9 |
| 20260502013828 | 64 | 345 | 3.5 | 3.5 | 0.00 | 0.00 | 0.00 | 30 | 1018.8 |
| 20260502013324 | 64 | 87 | 3.5 | 5.2 | 0.00 | 0.00 | 0.00 | 30 | 1018.9 |
| 20260502012820 | 64 | 132 | 0.9 | 0.9 | 0.00 | 0.00 | 0.00 | 30 | 1018.8 |
| 20260502012319 | 65 | 126 | 1.7 | 1.7 | 0.00 | 0.00 | 0.00 | 29 | 1018.7 |
| 20260502011815 | 65 | 146 | 2.6 | 2.6 | 0.00 | 0.00 | 0.00 | 28 | 1018.9 |
| 20260502011311 | 66 | 230 | 4.3 | 6.1 | 0.00 | 0.00 | 0.00 | 28 | 1018.9 |
| 20260502010809 | 67 | 90 | 0.9 | 1.7 | 0.00 | 0.00 | 0.00 | 28 | 1018.8 |
| 20260502010305 | 67 | 165 | 0.9 | 2.6 | 0.00 | 0.00 | 0.00 | 28 | 1018.9 |
| 20260502005802 | 67 | 92 | 1.7 | 2.6 | 0.00 | 0.00 | 0.00 | 27 | 1018.9 |
| 20260502005300 | 67 | 357 | 1.7 | 2.6 | 0.00 | 0.00 | 0.00 | 27 | 1018.9 |
| 20260502004756 | 67 | 150 | 2.6 | 3.5 | 0.00 | 0.00 | 0.00 | 27 | 1018.8 |
| 20260502004253 | 68 | 114 | 3.5 | 5.2 | 0.00 | 0.00 | 0.00 | 28 | 1018.9 |
| 20260502003751 | 68 | 133 | 0.9 | 1.7 | 0.00 | 0.00 | 0.00 | 28 | 1018.9 |
| 20260502003248 | 68 | 144 | 3.5 | 6.1 | 0.00 | 0.00 | 0.00 | 27 | 1018.8 |
| 20260502002743 | 68 | 149 | 1.7 | 2.6 | 0.00 | 0.00 | 0.00 | 28 | 1018.8 |
| 20260502002241 | 67 | 179 | 3.5 | 6.1 | 0.00 | 0.00 | 0.00 | 27 | 1018.9 |
| 20260502001738 | 68 | 149 | 2.6 | 2.6 | 0.00 | 0.00 | 0.00 | 29 | 1018.9 |
| 20260502001237 | 68 | 67 | 4.3 | 5.2 | 0.00 | 0.00 | 0.00 | 27 | 1018.7 |
| 20260502000734 | 68 | 339 | 4.3 | 5.2 | 0.00 | 0.00 | 0.00 | 27 | 1018.9 |
| 20260502000233 | 68 | 311 | 2.6 | 3.5 | 0.00 | 0.00 | 0.00 | 27 | 1019.0 |
| 20260501235732 | 68 | 8 | 2.6 | 3.5 | 0.00 | 0.00 | 0.00 | 28 | 1019.0 |
| 20260501235228 | 68 | 98 | 4.3 | 7.0 | 0.00 | 0.00 | 0.00 | 28 | 1019.0 |
| 20260501234724 | 68 | 321 | 1.7 | 2.6 | 0.00 | 0.00 | 0.00 | 27 | 1018.9 |
| 20260501234221 | 68 | 65 | 1.7 | 1.7 | 0.00 | 0.00 | 0.00 | 28 | 1018.9 |
| 20260501233719 | 68 | 286 | 5.2 | 7.0 | 0.00 | 0.00 | 0.00 | 27 | 1018.9 |
| 20260501233217 | 68 | 110 | 4.3 | 6.1 | 0.00 | 0.00 | 0.00 | 28 | 1019.0 |
| 20260501232712 | 68 | 283 | 5.2 | 6.1 | 0.00 | 0.00 | 0.00 | 28 | 1019.2 |
| 20260501232210 | 68 | 325 | 6.1 | 7.0 | 0.00 | 0.00 | 0.00 | 28 | 1019.3 |
| 20260501231707 | 68 | 33 | 3.5 | 3.5 | 0.00 | 0.00 | 0.00 | 28 | 1019.2 |
| 20260501231205 | 68 | 279 | 2.6 | 5.2 | 0.00 | 0.00 | 0.00 | 30 | 1019.0 |
| 20260501230703 | 68 | 188 | 3.5 | 5.2 | 0.00 | 0.00 | 0.00 | 30 | 1019.3 |
| 20260501230201 | 68 | 183 | 3.5 | 3.5 | 0.00 | 0.00 | 0.00 | 29 | 1019.4 |
| 20260501225659 | 68 | 90 | 3.5 | 7.0 | 0.00 | 0.00 | 0.00 | 31 | 1019.4 |
| 20260501225155 | 68 | 125 | 3.5 | 5.2 | 0.00 | 0.00 | 0.00 | 30 | 1019.2 |
| 20260501224652 | 68 | 114 | 2.6 | 3.5 | 0.00 | 0.00 | 0.00 | 27 | 1019.4 |
| 20260501224149 | 68 | 97 | 3.5 | 7.0 | 0.00 | 0.00 | 0.00 | 30 | 1019.6 |
| 20260501223646 | 67 | 69 | 1.7 | 2.6 | 0.00 | 0.00 | 0.00 | 31 | 1019.5 |
| 20260501223142 | 68 | 276 | 1.7 | 3.5 | 0.00 | 0.00 | 0.00 | 31 | 1019.3 |
| 20260501222638 | 68 | 353 | 3.5 | 5.2 | 0.00 | 0.00 | 0.00 | 28 | 1019.8 |
| 20260501222135 | 68 | 13 | 6.1 | 7.8 | 0.00 | 0.00 | 0.00 | 28 | 1020.0 |
| 20260501221632 | 68 | 108 | 2.6 | 2.6 | 0.00 | 0.00 | 0.00 | 30 | 1019.7 |
| 20260501221129 | 67 | 338 | 5.2 | 7.0 | 0.00 | 0.00 | 0.00 | 30 | 1020.0 |
| 20260501220627 | 68 | 47 | 6.1 | 7.8 | 0.00 | 0.00 | 0.00 | 28 | 1020.0 |
| 20260501220124 | 67 | 86 | 3.5 | 5.2 | 0.00 | 0.00 | 0.00 | 30 | 1020.1 |
| 20260501215621 | 67 | 319 | 5.2 | 6.1 | 0.00 | 0.00 | 0.00 | 30 | 1020.2 |
| 20260501215116 | 67 | 129 | 0.9 | 1.7 | 0.00 | 0.00 | 0.00 | 32 | 1020.0 |
| 20260501214611 | 67 | 313 | 1.7 | 2.6 | 0.00 | 0.00 | 0.00 | 32 | 1020.2 |
| 20260501214107 | 67 | 230 | 3.5 | 6.1 | 0.00 | 0.00 | 0.00 | 32 | 1020.2 |
| 20260501213604 | 67 | 37 | 5.2 | 6.1 | 0.00 | 0.00 | 0.00 | 30 | 1020.2 |
| 20260501213100 | 67 | 146 | 3.5 | 5.2 | 0.00 | 0.00 | 0.00 | 32 | 1020.3 |
| 20260501212556 | 67 | 6 | 4.3 | 6.1 | 0.00 | 0.00 | 0.00 | 29 | 1020.4 |
| 20260501212053 | 66 | 45 | 4.3 | 7.0 | 0.00 | 0.00 | 0.00 | 31 | 1020.5 |
| 20260501211550 | 66 | 141 | 0.9 | 1.7 | 0.00 | 0.00 | 0.00 | 37 | 1020.5 |
| 20260501211049 | 66 | 115 | 2.6 | 3.5 | 0.00 | 0.00 | 0.00 | 29 | 1020.5 |
| 20260501210544 | 66 | 79 | 2.6 | 3.5 | 0.00 | 0.00 | 0.00 | 34 | 1020.4 |
| 20260501210041 | 66 | 168 | 2.6 | 6.1 | 0.00 | 0.00 | 0.00 | 31 | 1020.5 |
| 20260501205538 | 66 | 267 | 1.7 | 1.7 | 0.00 | 0.00 | 0.00 | 33 | 1020.6 |
| 20260501205036 | 66 | 322 | 4.3 | 8.7 | 0.00 | 0.00 | 0.00 | 31 | 1020.5 |
| 20260501204531 | 66 | 199 | 5.2 | 6.1 | 0.00 | 0.00 | 0.00 | 29 | 1020.6 |
| 20260501204027 | 66 | 141 | 1.7 | 2.6 | 0.00 | 0.00 | 0.00 | 29 | 1020.5 |
| 20260501203524 | 66 | 127 | 2.6 | 5.2 | 0.00 | 0.00 | 0.00 | 31 | 1020.5 |
| 20260501203022 | 66 | 100 | 3.5 | 5.2 | 0.00 | 0.00 | 0.00 | 30 | 1020.5 |
| 20260501202519 | 66 | 188 | 1.7 | 3.5 | 0.00 | 0.00 | 0.00 | 33 | 1020.6 |
| 20260501202015 | 66 | 42 | 3.5 | 5.2 | 0.00 | 0.00 | 0.00 | 30 | 1020.6 |
| 20260501201513 | 66 | 267 | 1.7 | 3.5 | 0.00 | 0.00 | 0.00 | 30 | 1020.6 |
| 20260501201009 | 66 | 248 | 6.1 | 7.8 | 0.00 | 0.00 | 0.00 | 30 | 1020.5 |
| 20260501200506 | 65 | 96 | 2.6 | 2.6 | 0.00 | 0.00 | 0.00 | 32 | 1020.5 |
| 20260501200004 | 66 | 64 | 3.5 | 6.1 | 0.00 | 0.00 | 0.00 | 30 | 1020.8 |
| 20260501195500 | 66 | 53 | 1.7 | 3.5 | 0.00 | 0.00 | 0.00 | 32 | 1020.8 |
| 20260501194956 | 65 | 254 | 3.5 | 5.2 | 0.00 | 0.00 | 0.00 | 30 | 1020.6 |
| 20260501194452 | 65 | 245 | 1.7 | 2.6 | 0.00 | 0.00 | 0.00 | 31 | 1020.8 |
| 20260501193948 | 65 | 226 | 0.9 | 2.6 | 0.00 | 0.00 | 0.00 | 33 | 1021.0 |
| 20260501193446 | 65 | 140 | 0.9 | 1.7 | 0.00 | 0.00 | 0.00 | 31 | 1020.8 |
| 20260501192943 | 64 | 134 | 1.7 | 2.6 | 0.00 | 0.00 | 0.00 | 31 | 1020.9 |
| 20260501192441 | 65 | 323 | 4.3 | 7.0 | 0.00 | 0.00 | 0.00 | 29 | 1020.9 |
| 20260501191938 | 65 | 112 | 1.7 | 2.6 | 0.00 | 0.00 | 0.00 | 33 | 1021.0 |
| 20260501191435 | 65 | 79 | 4.3 | 5.2 | 0.00 | 0.00 | 0.00 | 31 | 1021.0 |
| 20260501190932 | 65 | 87 | 1.7 | 2.6 | 0.00 | 0.00 | 0.00 | 30 | 1020.9 |
| 20260501190428 | 65 | 170 | 3.5 | 5.2 | 0.00 | 0.00 | 0.00 | 30 | 1021.1 |
| 20260501185923 | 64 | 55 | 2.6 | 3.5 | 0.00 | 0.00 | 0.00 | 30 | 1021.2 |
| 20260501185419 | 65 | 115 | 7.0 | 8.7 | 0.00 | 0.00 | 0.00 | 30 | 1021.1 |
| 20260501184915 | 65 | 147 | 4.3 | 7.0 | 0.00 | 0.00 | 0.00 | 30 | 1021.1 |
| 20260501184411 | 64 | 156 | 1.7 | 2.6 | 0.00 | 0.00 | 0.00 | 31 | 1021.2 |
| 20260501183906 | 65 | 29 | 3.5 | 3.5 | 0.00 | 0.00 | 0.00 | 31 | 1021.3 |
| 20260501183404 | 67 | 282 | 1.7 | 3.5 | 0.00 | 0.00 | 0.00 | 28 | 1021.4 |
| 20260501182900 | 68 | 133 | 1.7 | 1.7 | 0.00 | 0.00 | 0.00 | 23 | 1021.4 |
| 20260501182357 | 68 | 150 | 0.9 | 1.7 | 0.00 | 0.00 | 0.00 | 25 | 1021.5 |
| 20260501181854 | 68 | 144 | 0.9 | 0.9 | 0.00 | 0.00 | 0.00 | 33 | 1021.7 |
| 20260501181351 | 68 | 119 | 1.7 | 2.6 | 0.00 | 0.00 | 0.00 | 26 | 1021.5 |
| 20260501180849 | 68 | 124 | 0.0 | 0.9 | 0.00 | 0.00 | 0.00 | 26 | 1021.8 |
| 20260501180344 | 67 | 119 | 0.0 | 0.9 | 0.00 | 0.00 | 0.00 | 33 | 1021.7 |
| 20260501175842 | 66 | 135 | 0.9 | 0.9 | 0.00 | 0.00 | 0.00 | 34 | 1021.9 |
| 20260501175338 | 65 | 129 | 0.9 | 0.9 | 0.00 | 0.00 | 0.00 | 29 | 1021.7 |
| 20260501174835 | 64 | 119 | 0.9 | 0.9 | 0.00 | 0.00 | 0.00 | 31 | 1021.8 |
| 20260501174333 | 65 | 114 | 0.0 | 0.0 | 0.00 | 0.00 | 0.00 | 29 | 1021.7 |
| 20260501173831 | 66 | 52 | 0.9 | 1.7 | 0.00 | 0.00 | 0.00 | 28 | 1021.7 |
| 20260501173328 | 66 | 117 | 0.9 | 1.7 | 0.00 | 0.00 | 0.00 | 30 | 1021.9 |
| 20260501172823 | 66 | 123 | 0.9 | 2.6 | 0.00 | 0.00 | 0.00 | 29 | 1021.7 |
| 20260501172319 | 66 | 344 | 1.7 | 2.6 | 0.00 | 0.00 | 0.00 | 31 | 1021.8 |